Location: Pl�tzky
(52.0521°N, 11.8020°E)
Time: 14:08:15
(UTC+00:00)

USA 229 - Pass Details

Date: 26 February 2020
Orbit: 986 x 1226 km, 63.4° (Epoch: 26 March)

Event Time Altitude Azimuth Distance (km) Brightness Sun altitude
Rises 19:54:41 0° 276° (W) 3,787 7.6 -29.1°
Reaches altitude 10° 19:57:32 10° 285° (WNW) 2,867 6.8 -29.5°
Maximum altitude 20:03:40 34° 350° (N) 1,706 5.0 -30.4°
Enters shadow 20:07:03 23° 36° (NE) 2,166 5.2 -30.8°
